Location: Clanezzo
(45.7500°N, 9.6000°E)
Time: 10:39:00
(UTC+00:00)

CAS-4A - Pass Details

Date: 05 July 2022
Orbit: 521 x 536 km, 43.0° (Epoch: 17 August)

Event Time Altitude Azimuth Distance (km) Brightness Sun altitude
Exits shadow 01:11:22 41° 216° (SW) 768 ? -17.4°
Maximum altitude 01:12:20 52° 170° (S) 655 ? -17.3°
Drops below altitude 10° 01:16:14 10° 94° (E) 1,761 ? -17.0°
Sets 01:18:30 0° 89° (E) 2,653 ? -16.9°
